Location: Lake Lucerne
(45.5315°N, 88.8489°W)
Time: 19:50:52
(UTC-06:00)

ISS - Visible Passes

Search period start: 18 November 2025 00:00
Search period end: 28 November 2025 00:00
Orbit: 414 x 420 km, 51.6° (Epoch: 18 November)

Date Brightness Start Highest point End Pass type
(mag) Time Alt. Az. Time Alt. Az. Time Alt. Az.
18 Nov -2.7 18:12:12 10° W 18:15:18 34° NNW 18:15:31 34° N visible
19 Nov -3.0 17:23:46 10° W 17:26:59 42° NNW 17:29:12 17° NE visible
19 Nov -0.8 19:01:21 10° WNW 19:02:07 15° NW 19:02:07 15° NW visible
20 Nov -2.3 18:12:55 10° WNW 18:15:46 28° N 18:15:46 28° N visible
21 Nov -2.5 17:24:26 10° WNW 17:27:27 30° N 17:29:23 17° NE visible
21 Nov -0.7 19:01:44 10° NW 19:02:17 13° NW 19:02:17 13° NW visible
22 Nov -2.3 18:13:22 10° WNW 18:15:53 27° N 18:15:53 27° N visible
23 Nov -2.4 17:24:55 10° WNW 17:27:51 27° N 17:29:29 19° NE visible
23 Nov -0.7 19:01:51 10° NW 19:02:23 14° NW 19:02:23 14° NW visible
24 Nov -2.6 18:13:30 10° NW 18:15:59 33° NNW 18:15:59 33° NNW visible
25 Nov -2.7 17:25:06 10° NW 17:28:08 31° N 17:29:38 21° ENE visible
25 Nov -0.8 19:01:49 10° WNW 19:02:32 16° WNW 19:02:32 16° WNW visible
26 Nov -3.4 18:13:24 10° WNW 18:16:14 54° NNW 18:16:14 54° NNW visible
27 Nov -3.4 17:24:58 10° NW 17:28:14 46° NNE 17:30:00 23° E visible
27 Nov -0.9 19:01:50 10° WNW 19:02:55 18° W 19:02:55 18° W visible
